Wetterdaten: Woche 15.12.14 - 21.12.14 (KW51)
Datum Zeit Temperatur Luftfeuchte Luftdruck Niederschlag Windrichtung Sonnenschein Solar Wind
15.12.2014 00:00 5,7 C 93 % 1016,5 hPa 0,0 l/m N 0,00 h 0 W/m 1,9 km/h (1 Bft)
15.12.2014 01:00 5,8 C 94 % 1016,3 hPa 0,0 l/m SW 0,00 h 0 W/m 6,8 km/h (2 Bft)
15.12.2014 02:00 6,3 C 95 % 1016,4 hPa 1,2 l/m SW 0,00 h 0 W/m 9,5 km/h (2 Bft)
15.12.2014 03:00 6,3 C 96 % 1016,2 hPa 0,4 l/m SW 0,00 h 0 W/m 9,9 km/h (2 Bft)
15.12.2014 04:00 6,1 C 97 % 1015,8 hPa 0,4 l/m SW 0,00 h 0 W/m 11,7 km/h (2 Bft)
15.12.2014 05:00 5,9 C 97 % 1015,8 hPa 0,0 l/m SW 0,00 h 0 W/m 5,6 km/h (1 Bft)
15.12.2014 06:00 5,6 C 97 % 1015,8 hPa 0,0 l/m SW 0,00 h 0 W/m 3,5 km/h (1 Bft)
15.12.2014 07:00 5,6 C 97 % 1016,1 hPa 0,0 l/m SW 0,00 h 0 W/m 8,2 km/h (2 Bft)
15.12.2014 08:00 5,7 C 98 % 1016,4 hPa 0,0 l/m SW 0,00 h 0 W/m 9,1 km/h (2 Bft)
15.12.2014 09:00 5,8 C 98 % 1016,7 hPa 0,0 l/m SW 0,00 h 9 W/m 11,4 km/h (2 Bft)
15.12.2014 10:00 6,2 C 98 % 1017,1 hPa 0,0 l/m SW 0,00 h 11 W/m 12,8 km/h (3 Bft)
15.12.2014 11:00 6,3 C 97 % 1017,0 hPa 0,0 l/m SW 0,00 h 20 W/m 12,8 km/h (3 Bft)
15.12.2014 12:00 6,5 C 97 % 1016,6 hPa 0,2 l/m SW 0,00 h 40 W/m 12,9 km/h (3 Bft)
15.12.2014 13:00 7,1 C 97 % 1016,1 hPa 0,0 l/m S-SW 0,00 h 58 W/m 10,7 km/h (2 Bft)
15.12.2014 14:00 7,4 C 96 % 1015,8 hPa 0,0 l/m S-SW 0,00 h 29 W/m 5,9 km/h (2 Bft)
15.12.2014 15:00 7,5 C 97 % 1015,9 hPa 0,0 l/m S-SW 0,00 h 15 W/m 2,5 km/h (1 Bft)
15.12.2014 16:00 7,3 C 96 % 1015,9 hPa 0,0 l/m SW 0,00 h 7 W/m 6,6 km/h (2 Bft)
15.12.2014 17:00 7,0 C 96 % 1015,8 hPa 0,0 l/m SW 0,00 h 0 W/m 7,0 km/h (2 Bft)
15.12.2014 18:00 6,8 C 97 % 1015,8 hPa 0,0 l/m SW 0,00 h 0 W/m 3,5 km/h (1 Bft)
15.12.2014 19:00 6,4 C 97 % 1015,6 hPa 0,0 l/m SW 0,00 h 0 W/m 1,5 km/h (1 Bft)
15.12.2014 20:00 6,8 C 97 % 1015,4 hPa 0,0 l/m SW 0,00 h 0 W/m 9,7 km/h (2 Bft)
15.12.2014 21:00 7,0 C 97 % 1015,0 hPa 0,0 l/m SW 0,00 h 0 W/m 8,6 km/h (2 Bft)
15.12.2014 22:00 7,2 C 97 % 1014,7 hPa 0,0 l/m SW 0,00 h 0 W/m 9,5 km/h (2 Bft)
15.12.2014 23:00 7,4 C 96 % 1014,3 hPa 0,0 l/m SW 0,00 h 0 W/m 2,5 km/h (1 Bft)
16.12.2014 00:00 7,0 C 94 % 1013,9 hPa 0,0 l/m SW 0,00 h 0 W/m 0,5 km/h (0 Bft)
16.12.2014 01:00 6,4 C 94 % 1013,5 hPa 0,0 l/m N 0,00 h 0 W/m 0,5 km/h (0 Bft)
16.12.2014 02:00 6,0 C 95 % 1013,3 hPa 0,0 l/m N 0,00 h 0 W/m 0,1 km/h (0 Bft)
16.12.2014 03:00 5,8 C 96 % 1012,8 hPa 0,0 l/m N 0,00 h 0 W/m 0,4 km/h (0 Bft)
16.12.2014 04:00 5,7 C 96 % 1012,5 hPa 0,0 l/m SW 0,00 h 0 W/m 1,7 km/h (1 Bft)
16.12.2014 05:00 5,4 C 97 % 1012,1 hPa 0,0 l/m N 0,00 h 0 W/m 0,3 km/h (0 Bft)
16.12.2014 06:00 5,3 C 97 % 1012,2 hPa 0,0 l/m N 0,00 h 0 W/m 0,3 km/h (0 Bft)
16.12.2014 07:00 5,3 C 97 % 1012,2 hPa 0,0 l/m N 0,00 h 0 W/m 0,1 km/h (0 Bft)
16.12.2014 08:00 5,2 C 97 % 1012,4 hPa 0,0 l/m N 0,00 h 12 W/m 0,7 km/h (0 Bft)
16.12.2014 09:00 5,3 C 98 % 1012,4 hPa 0,0 l/m N 0,00 h 45 W/m 0,4 km/h (0 Bft)
16.12.2014 10:00 6,4 C 98 % 1012,5 hPa 0,0 l/m SW 0,75 h 175 W/m 1,5 km/h (1 Bft)
16.12.2014 11:00 7,1 C 96 % 1012,3 hPa 0,0 l/m SW 0,00 h 116 W/m 2,4 km/h (1 Bft)
16.12.2014 12:00 7,8 C 81 % 1011,8 hPa 0,0 l/m SW 0,25 h 119 W/m 5,9 km/h (2 Bft)
16.12.2014 13:00 7,6 C 76 % 1011,4 hPa 0,0 l/m W-SW 0,00 h 52 W/m 4,5 km/h (1 Bft)
16.12.2014 14:00 7,1 C 79 % 1011,2 hPa 0,0 l/m W-SW 0,00 h 42 W/m 6,0 km/h (2 Bft)
16.12.2014 15:00 6,5 C 80 % 1011,4 hPa 0,0 l/m N 0,00 h 31 W/m 1,5 km/h (1 Bft)
16.12.2014 16:00 6,5 C 83 % 1011,5 hPa 0,0 l/m N 0,00 h 7 W/m 0,8 km/h (0 Bft)
16.12.2014 17:00 6,1 C 84 % 1012,2 hPa 0,0 l/m N-NW 0,00 h 0 W/m 8,3 km/h (2 Bft)
16.12.2014 18:00 5,7 C 84 % 1012,7 hPa 0,0 l/m N-NW 0,00 h 0 W/m 9,4 km/h (2 Bft)
16.12.2014 19:00 5,4 C 84 % 1013,3 hPa 0,0 l/m NW 0,00 h 0 W/m 8,4 km/h (2 Bft)
16.12.2014 20:00 5,2 C 85 % 1013,5 hPa 0,0 l/m W-NW 0,00 h 0 W/m 6,3 km/h (2 Bft)
16.12.2014 21:00 4,9 C 85 % 1013,6 hPa 0,0 l/m W-NW 0,00 h 0 W/m 5,9 km/h (2 Bft)
16.12.2014 22:00 4,7 C 86 % 1013,9 hPa 0,0 l/m W-SW 0,00 h 0 W/m 8,0 km/h (2 Bft)
16.12.2014 23:00 4,8 C 86 % 1014,1 hPa 0,0 l/m W-SW 0,00 h 0 W/m 7,1 km/h (2 Bft)
17.12.2014 00:00 4,7 C 87 % 1014,2 hPa 0,0 l/m W-SW 0,00 h 0 W/m 4,1 km/h (1 Bft)
17.12.2014 01:00 4,7 C 88 % 1014,3 hPa 0,0 l/m W 0,00 h 0 W/m 8,3 km/h (2 Bft)
17.12.2014 02:00 4,0 C 88 % 1014,7 hPa 0,0 l/m N-NO 0,00 h 0 W/m 5,2 km/h (1 Bft)
17.12.2014 03:00 3,3 C 89 % 1014,8 hPa 0,0 l/m N 0,00 h 0 W/m 3,1 km/h (1 Bft)
17.12.2014 04:00 3,1 C 89 % 1014,5 hPa 0,0 l/m N 0,00 h 0 W/m 0,3 km/h (0 Bft)
17.12.2014 05:00 3,0 C 91 % 1014,4 hPa 0,0 l/m N 0,00 h 0 W/m 0,8 km/h (0 Bft)
17.12.2014 06:00 2,9 C 92 % 1014,4 hPa 0,0 l/m N 0,00 h 0 W/m 2,1 km/h (1 Bft)
17.12.2014 07:00 2,9 C 94 % 1014,2 hPa 0,0 l/m NW 0,00 h 0 W/m 4,5 km/h (1 Bft)
17.12.2014 08:00 2,7 C 95 % 1013,9 hPa 0,0 l/m W 0,00 h 12 W/m 7,9 km/h (2 Bft)
17.12.2014 09:00 3,0 C 96 % 1013,7 hPa 0,0 l/m SW 0,00 h 39 W/m 8,6 km/h (2 Bft)
17.12.2014 10:00 3,7 C 94 % 1013,3 hPa 0,0 l/m W-SW 0,00 h 58 W/m 17,3 km/h (3 Bft)
17.12.2014 11:00 4,4 C 87 % 1012,3 hPa 0,0 l/m W-SW 0,00 h 72 W/m 24,1 km/h (4 Bft)
17.12.2014 12:00 4,8 C 85 % 1011,2 hPa 0,0 l/m W-SW 0,00 h 66 W/m 28,8 km/h (5 Bft)
17.12.2014 13:00 4,9 C 87 % 1010,0 hPa 0,2 l/m SW 0,00 h 46 W/m 24,5 km/h (4 Bft)
17.12.2014 14:00 4,3 C 91 % 1009,6 hPa 1,2 l/m W-SW 0,00 h 13 W/m 27,0 km/h (4 Bft)
17.12.2014 15:00 3,8 C 94 % 1009,8 hPa 2,0 l/m W-SW 0,00 h 7 W/m 23,6 km/h (4 Bft)
17.12.2014 16:00 3,2 C 95 % 1010,2 hPa 3,0 l/m SW 0,00 h 0 W/m 25,2 km/h (4 Bft)
17.12.2014 17:00 2,6 C 96 % 1010,8 hPa 1,6 l/m W-SW 0,00 h 0 W/m 23,0 km/h (4 Bft)
17.12.2014 18:00 2,9 C 97 % 1011,8 hPa 1,2 l/m W-SW 0,00 h 0 W/m 26,8 km/h (4 Bft)
17.12.2014 19:00 3,3 C 97 % 1012,7 hPa 0,2 l/m SW 0,00 h 0 W/m 27,7 km/h (4 Bft)
17.12.2014 20:00 3,6 C 97 % 1013,1 hPa 0,0 l/m W-SW 0,00 h 0 W/m 27,4 km/h (4 Bft)
17.12.2014 21:00 3,8 C 97 % 1013,9 hPa 0,0 l/m SW 0,00 h 0 W/m 21,7 km/h (4 Bft)
17.12.2014 22:00 4,1 C 97 % 1014,5 hPa 0,0 l/m W-SW 0,00 h 0 W/m 21,0 km/h (4 Bft)
17.12.2014 23:00 4,3 C 97 % 1015,5 hPa 0,0 l/m W-SW 0,00 h 0 W/m 22,5 km/h (4 Bft)
18.12.2014 00:00 4,6 C 97 % 1015,8 hPa 0,0 l/m SW 0,00 h 0 W/m 21,3 km/h (4 Bft)
18.12.2014 01:00 4,9 C 97 % 1016,2 hPa 0,0 l/m W-SW 0,00 h 0 W/m 20,4 km/h (4 Bft)
18.12.2014 02:00 5,1 C 97 % 1016,6 hPa 0,0 l/m SW 0,00 h 0 W/m 17,0 km/h (3 Bft)
18.12.2014 03:00 5,1 C 97 % 1016,8 hPa 0,0 l/m SW 0,00 h 0 W/m 19,4 km/h (3 Bft)
18.12.2014 04:00 5,2 C 97 % 1017,0 hPa 0,0 l/m SW 0,00 h 0 W/m 11,4 km/h (2 Bft)
18.12.2014 05:00 5,3 C 97 % 1017,2 hPa 0,0 l/m SW 0,00 h 0 W/m 14,0 km/h (3 Bft)
18.12.2014 06:00 5,3 C 97 % 1017,2 hPa 0,0 l/m SW 0,00 h 0 W/m 17,7 km/h (3 Bft)
18.12.2014 07:00 5,4 C 97 % 1017,1 hPa 0,0 l/m SW 0,00 h 0 W/m 16,2 km/h (3 Bft)
18.12.2014 08:00 5,5 C 97 % 1017,3 hPa 0,0 l/m SW 0,08 h 16 W/m 17,6 km/h (3 Bft)
18.12.2014 09:00 6,0 C 96 % 1017,5 hPa 0,0 l/m SW 0,00 h 30 W/m 18,2 km/h (3 Bft)
18.12.2014 10:00 6,5 C 95 % 1017,8 hPa 0,0 l/m SW 0,00 h 51 W/m 21,6 km/h (4 Bft)
18.12.2014 11:00 6,9 C 96 % 1017,6 hPa 0,0 l/m SW 0,00 h 55 W/m 24,0 km/h (4 Bft)
18.12.2014 12:00 7,2 C 95 % 1017,5 hPa 0,0 l/m SW 0,00 h 41 W/m 20,2 km/h (4 Bft)
18.12.2014 13:00 7,3 C 97 % 1017,4 hPa 0,4 l/m SW 0,00 h 30 W/m 17,7 km/h (3 Bft)
18.12.2014 14:00 7,8 C 98 % 1017,6 hPa 0,2 l/m W-SW 0,00 h 23 W/m 27,4 km/h (4 Bft)
18.12.2014 15:00 8,1 C 98 % 1017,8 hPa 0,2 l/m W-SW 0,00 h 11 W/m 27,8 km/h (4 Bft)
18.12.2014 16:00 8,4 C 97 % 1018,6 hPa 0,0 l/m SW 0,00 h 5 W/m 27,1 km/h (4 Bft)
18.12.2014 17:00 8,6 C 97 % 1019,1 hPa 0,0 l/m W-SW 0,00 h 0 W/m 23,9 km/h (4 Bft)
18.12.2014 18:00 8,9 C 97 % 1019,4 hPa 0,0 l/m SW 0,00 h 0 W/m 23,4 km/h (4 Bft)
18.12.2014 19:00 9,3 C 97 % 1019,6 hPa 0,0 l/m W-SW 0,00 h 0 W/m 23,4 km/h (4 Bft)
18.12.2014 20:00 9,4 C 97 % 1019,9 hPa 0,0 l/m W-SW 0,00 h 0 W/m 22,8 km/h (4 Bft)
18.12.2014 21:00 9,8 C 96 % 1020,1 hPa 0,0 l/m W-SW 0,00 h 0 W/m 26,3 km/h (4 Bft)
18.12.2014 22:00 10,2 C 94 % 1020,1 hPa 0,0 l/m SW 0,00 h 0 W/m 28,6 km/h (4 Bft)
18.12.2014 23:00 10,3 C 91 % 1020,5 hPa 0,0 l/m W 0,00 h 0 W/m 30,6 km/h (5 Bft)
19.12.2014 00:00 10,4 C 88 % 1020,6 hPa 0,0 l/m W-SW 0,00 h 0 W/m 34,2 km/h (5 Bft)
19.12.2014 01:00 9,7 C 88 % 1020,6 hPa 0,0 l/m W-SW 0,00 h 0 W/m 29,4 km/h (5 Bft)
19.12.2014 02:00 9,2 C 85 % 1021,0 hPa 0,0 l/m W-SW 0,00 h 0 W/m 26,1 km/h (4 Bft)
19.12.2014 03:00 9,0 C 86 % 1020,8 hPa 0,0 l/m W-SW 0,00 h 0 W/m 30,0 km/h (5 Bft)
19.12.2014 04:00 8,5 C 89 % 1020,3 hPa 0,0 l/m W-SW 0,00 h 0 W/m 23,4 km/h (4 Bft)
19.12.2014 05:00 7,8 C 91 % 1020,1 hPa 0,0 l/m SW 0,00 h 0 W/m 18,1 km/h (3 Bft)
19.12.2014 06:00 8,0 C 92 % 1019,8 hPa 0,0 l/m SW 0,00 h 0 W/m 28,8 km/h (5 Bft)
19.12.2014 07:00 8,2 C 91 % 1019,9 hPa 0,0 l/m W 0,00 h 0 W/m 26,3 km/h (4 Bft)
19.12.2014 08:00 8,2 C 91 % 1019,7 hPa 0,0 l/m W-SW 0,08 h 18 W/m 30,5 km/h (5 Bft)
19.12.2014 09:00 8,6 C 91 % 1019,7 hPa 0,0 l/m SW 0,00 h 61 W/m 31,4 km/h (5 Bft)
19.12.2014 10:00 8,9 C 89 % 1019,7 hPa 0,0 l/m W-SW 0,00 h 71 W/m 28,6 km/h (4 Bft)
19.12.2014 11:00 9,6 C 86 % 1019,4 hPa 0,0 l/m W-SW 0,08 h 113 W/m 34,6 km/h (5 Bft)
19.12.2014 12:00 10,0 C 84 % 1018,9 hPa 0,0 l/m W-SW 0,00 h 115 W/m 33,7 km/h (5 Bft)
19.12.2014 13:00 10,1 C 84 % 1018,3 hPa 0,0 l/m W-SW 0,00 h 94 W/m 35,3 km/h (5 Bft)
19.12.2014 14:00 10,1 C 83 % 1017,8 hPa 0,0 l/m W-SW 0,00 h 42 W/m 31,3 km/h (5 Bft)
19.12.2014 15:00 10,0 C 82 % 1017,6 hPa 0,0 l/m W 0,00 h 24 W/m 24,4 km/h (4 Bft)
19.12.2014 16:00 9,6 C 84 % 1017,4 hPa 0,0 l/m W-SW 0,00 h 7 W/m 25,0 km/h (4 Bft)
19.12.2014 17:00 9,3 C 84 % 1017,6 hPa 0,0 l/m W 0,00 h 0 W/m 22,3 km/h (4 Bft)
19.12.2014 18:00 9,2 C 86 % 1017,8 hPa 0,0 l/m W-SW 0,00 h 0 W/m 24,1 km/h (4 Bft)
19.12.2014 19:00 8,9 C 89 % 1017,8 hPa 0,8 l/m W-SW 0,00 h 0 W/m 25,5 km/h (4 Bft)
19.12.2014 20:00 8,5 C 92 % 1018,3 hPa 0,0 l/m W-SW 0,00 h 0 W/m 26,8 km/h (4 Bft)
19.12.2014 21:00 8,7 C 91 % 1019,0 hPa 0,0 l/m W-SW 0,00 h 0 W/m 28,7 km/h (4 Bft)
19.12.2014 22:00 8,4 C 93 % 1019,7 hPa 0,6 l/m W-SW 0,00 h 0 W/m 24,4 km/h (4 Bft)
19.12.2014 23:00 8,3 C 95 % 1020,5 hPa 0,6 l/m W-SW 0,00 h 0 W/m 19,7 km/h (3 Bft)
20.12.2014 00:00 7,5 C 95 % 1021,3 hPa 0,8 l/m W-NW 0,00 h 0 W/m 18,2 km/h (3 Bft)
20.12.2014 01:00 6,9 C 95 % 1021,7 hPa 0,0 l/m W 0,00 h 0 W/m 7,6 km/h (2 Bft)
20.12.2014 02:00 6,5 C 95 % 1022,4 hPa 0,0 l/m W 0,00 h 0 W/m 6,3 km/h (2 Bft)
20.12.2014 03:00 5,6 C 95 % 1023,0 hPa 0,0 l/m W 0,00 h 0 W/m 3,5 km/h (1 Bft)
20.12.2014 04:00 4,8 C 95 % 1023,3 hPa 0,0 l/m W 0,00 h 0 W/m 1,7 km/h (1 Bft)
20.12.2014 05:00 4,4 C 96 % 1023,8 hPa 0,0 l/m W 0,00 h 0 W/m 5,2 km/h (1 Bft)
20.12.2014 06:00 4,7 C 97 % 1023,9 hPa 0,0 l/m W 0,00 h 0 W/m 8,2 km/h (2 Bft)
20.12.2014 07:00 4,8 C 97 % 1023,9 hPa 0,0 l/m W 0,00 h 0 W/m 11,7 km/h (2 Bft)
20.12.2014 08:00 5,3 C 97 % 1024,4 hPa 0,0 l/m W-NW 0,08 h 15 W/m 13,3 km/h (3 Bft)
20.12.2014 09:00 4,8 C 96 % 1024,8 hPa 0,0 l/m W-NW 0,00 h 35 W/m 16,2 km/h (3 Bft)
20.12.2014 10:00 4,9 C 92 % 1025,2 hPa 0,0 l/m W-NW 0,25 h 85 W/m 20,8 km/h (4 Bft)
20.12.2014 11:00 5,1 C 85 % 1025,1 hPa 0,0 l/m W 0,58 h 199 W/m 24,3 km/h (4 Bft)
20.12.2014 12:00 5,1 C 83 % 1024,1 hPa 0,0 l/m W 0,08 h 140 W/m 21,2 km/h (4 Bft)
20.12.2014 13:00 5,5 C 82 % 1023,5 hPa 0,0 l/m W-SW 0,50 h 171 W/m 22,0 km/h (4 Bft)
20.12.2014 14:00 5,5 C 79 % 1023,3 hPa 0,0 l/m W 0,25 h 94 W/m 20,8 km/h (4 Bft)
20.12.2014 15:00 5,2 C 77 % 1023,5 hPa 0,0 l/m W-NW 0,00 h 42 W/m 20,2 km/h (4 Bft)
20.12.2014 16:00 4,6 C 73 % 1024,1 hPa 0,2 l/m W 0,17 h 15 W/m 29,4 km/h (5 Bft)
20.12.2014 17:00 4,2 C 74 % 1024,7 hPa 0,0 l/m W-SW 0,00 h 0 W/m 20,2 km/h (4 Bft)
20.12.2014 18:00 4,0 C 73 % 1025,0 hPa 0,0 l/m W-SW 0,00 h 0 W/m 27,1 km/h (4 Bft)
20.12.2014 19:00 3,7 C 76 % 1025,7 hPa 0,0 l/m W-SW 0,00 h 0 W/m 25,6 km/h (4 Bft)
20.12.2014 20:00 3,9 C 77 % 1026,6 hPa 0,0 l/m W 0,00 h 0 W/m 30,7 km/h (5 Bft)
20.12.2014 21:00 3,9 C 78 % 1027,3 hPa 0,0 l/m W 0,00 h 0 W/m 28,7 km/h (4 Bft)
20.12.2014 22:00 3,3 C 85 % 1028,8 hPa 0,6 l/m W 0,00 h 0 W/m 20,8 km/h (4 Bft)
20.12.2014 23:00 2,6 C 92 % 1029,5 hPa 0,0 l/m W 0,00 h 0 W/m 18,0 km/h (3 Bft)
21.12.2014 00:00 2,4 C 93 % 1029,9 hPa 0,8 l/m W 0,00 h 0 W/m 19,4 km/h (3 Bft)
21.12.2014 01:00 2,3 C 94 % 1030,3 hPa 0,0 l/m W 0,00 h 0 W/m 21,4 km/h (4 Bft)
21.12.2014 02:00 2,5 C 94 % 1030,8 hPa 0,0 l/m W 0,00 h 0 W/m 18,5 km/h (3 Bft)
21.12.2014 03:00 2,5 C 93 % 1031,4 hPa 0,0 l/m W-SW 0,00 h 0 W/m 18,5 km/h (3 Bft)
21.12.2014 04:00 2,1 C 93 % 1032,0 hPa 0,0 l/m W 0,00 h 0 W/m 15,6 km/h (3 Bft)
21.12.2014 05:00 1,9 C 94 % 1032,2 hPa 0,0 l/m W-NW 0,00 h 0 W/m 15,7 km/h (3 Bft)
21.12.2014 06:00 1,8 C 93 % 1032,4 hPa 0,0 l/m W-SW 0,00 h 0 W/m 11,7 km/h (2 Bft)
21.12.2014 07:00 1,3 C 94 % 1032,9 hPa 0,0 l/m W-SW 0,00 h 0 W/m 6,7 km/h (2 Bft)
21.12.2014 08:00 1,2 C 95 % 1033,3 hPa 0,0 l/m W-SW 0,08 h 17 W/m 9,8 km/h (2 Bft)
21.12.2014 09:00 1,8 C 95 % 1033,4 hPa 0,0 l/m W-SW 0,08 h 34 W/m 14,2 km/h (3 Bft)
21.12.2014 10:00 3,0 C 93 % 1033,5 hPa 0,0 l/m W-SW 0,42 h 109 W/m 17,0 km/h (3 Bft)
21.12.2014 11:00 4,3 C 86 % 1033,4 hPa 0,0 l/m SW 0,75 h 211 W/m 16,0 km/h (3 Bft)
21.12.2014 12:00 4,9 C 82 % 1033,0 hPa 0,0 l/m W-SW 0,83 h 210 W/m 16,8 km/h (3 Bft)
21.12.2014 13:00 4,8 C 81 % 1032,7 hPa 0,0 l/m W-SW 0,33 h 144 W/m 17,2 km/h (3 Bft)
21.12.2014 14:00 4,6 C 81 % 1032,3 hPa 0,0 l/m W-SW 0,00 h 70 W/m 20,4 km/h (4 Bft)
21.12.2014 15:00 4,2 C 83 % 1032,1 hPa 0,0 l/m W-SW 0,08 h 45 W/m 16,6 km/h (3 Bft)
21.12.2014 16:00 3,8 C 82 % 1032,0 hPa 0,0 l/m W 0,00 h 6 W/m 10,2 km/h (2 Bft)
21.12.2014 17:00 3,0 C 84 % 1032,1 hPa 0,0 l/m W 0,00 h 0 W/m 6,4 km/h (2 Bft)
21.12.2014 18:00 2,4 C 86 % 1032,2 hPa 0,0 l/m SW 0,00 h 0 W/m 5,3 km/h (1 Bft)
21.12.2014 19:00 1,8 C 89 % 1032,1 hPa 0,0 l/m W-SW 0,00 h 0 W/m 7,4 km/h (2 Bft)
21.12.2014 20:00 1,8 C 89 % 1031,9 hPa 0,0 l/m W-SW 0,00 h 0 W/m 6,3 km/h (2 Bft)
21.12.2014 21:00 1,4 C 90 % 1031,7 hPa 0,0 l/m W-SW 0,00 h 0 W/m 3,3 km/h (1 Bft)
21.12.2014 22:00 0,9 C 90 % 1031,4 hPa 0,0 l/m W-SW 0,00 h 0 W/m 1,2 km/h (1 Bft)
21.12.2014 23:00 0,6 C 93 % 1031,0 hPa 0,0 l/m W-SW 0,00 h 0 W/m 4,9 km/h (1 Bft)
Min-Datum _ 21.12.14 16.12.14 17.12.14 - - - - 15.12.14
_ Min-Zeit 22:55 13:00 14:05 - - - - 00:05
Minimum _ 0,5 C 70 % 1009,4 hPa - - - - 0,0 km/h (0 Bft)
Max-Datum _ 18.12.14 15.12.14 21.12.14 17.12.14 - 16.12.14 20.12.14 19.12.14
_ Max-Zeit 23:20 15:00 10:30 16:10 - 10:05 13:50 00:05
Maximum _ 10,4 C 100 % 1033,8 hPa 3,0 l/m - 0,08 h 364 W/m 49,9 km/h
W (6 Bft)
Durchschnitt _ 5,7 C 91 % 1019,3 hPa #16,8 l/m W-SW #5:45 h 58 W/m 15,2 km/h (3 Bft)